Flag for Norway Weather past 2 weeks in Vennesla, Norway

Now
39 °F

Drizzle. Broken clouds.


Feels Like: 30 °F
Forecast: 39 / 45 °F
Wind: 17 mph from Southwest

Location: Kristiansand / Kjevik

Current Time: Feb 28, 2015 at 3:16:40 PM

Latest Report: Feb 28, 2015 at 2:50 PM


Visibility: 4 mi

Pressure: 29.68 "Hg

Humidity: 100%

Dew point: 39 °F

Location of VenneslaLocation

Historic Weather in Vennesla — Graph

°F

Vennesla temperature yesterday

Maximum temperature yesterday: 46 °F (at 12:20 PM)
Minimum temperature yesterday: 30 °F (at 9:20 PM)
Average temperature yesterday: 38 °F

Past Weeks' High & Low Weather Summary

 TemperatureHumidityPressure
High46 °F (Feb 18, 1:20 PM)100% (Feb 14, 2:50 AM)30.39 "Hg (Feb 14, 2:50 AM)
Low27 °F (Feb 21, 11:50 PM)53% (Feb 22, 3:20 PM)28.91 "Hg (Feb 23, 8:20 AM)
Average38 °F88%29.77 "Hg
* Reported Feb 13 1:20 PM — Feb 28 1:50 PM, Vennesla, Weather by CustomWeather, © 2015

Note: Actual official high and low records may vary slightly from our data, if they occured in-between our weather recording intervals... More about our weather records

Advertising

Vennesla weather history for previous 24 hours

 ConditionsComfort  
Time TempWeatherWind HumidityBarometerVisibility
1:50 PM
Sat, Feb 28
41 °FLight rain. Partly sunny.18 mph93%29.71 "Hg6 mi
1:20 PM41 °FLight rain. Broken clouds.17 mph87%29.71 "Hg6 mi
12:50 PM41 °FLight rain. Broken clouds.20 mph87%29.74 "Hg6 mi
12:20 PM41 °FLight rain. Partly sunny.21 mph87%29.74 "Hg5 mi
11:50 AM41 °FDrizzle. Partly sunny.20 mph87%29.74 "HgN/A
11:20 AM41 °FLight rain. Partly sunny.20 mph87%29.77 "HgN/A
10:50 AM41 °FPartly sunny.20 mph87%29.77 "HgN/A
10:20 AM41 °FPartly sunny.18 mph87%29.77 "HgN/A
9:50 AM39 °FPartly sunny.15 mph93%29.77 "HgN/A
9:20 AM39 °FPartly sunny.15 mph93%29.80 "HgN/A
8:50 AM39 °FPartly sunny.14 mph87%29.80 "HgN/A
8:20 AM39 °FPartly sunny.13 mph87%29.80 "HgN/A
7:50 AM39 °FBroken clouds.13 mph87%29.80 "HgN/A
7:20 AM39 °FPassing clouds.12 mph87%29.80 "HgN/A
6:50 AM37 °FPassing clouds.12 mph93%29.83 "HgN/A
6:20 AM37 °FPartly cloudy.13 mph93%29.83 "HgN/A
5:50 AM36 °FOvercast.5 mph93%29.83 "HgN/A
5:20 AM32 °FPartly cloudy.No wind93%29.86 "HgN/A
4:50 AM32 °FPartly cloudy.3 mph93%29.86 "HgN/A
4:20 AM32 °FPassing clouds.3 mph93%29.86 "HgN/A
3:50 AM32 °FOvercast.5 mph93%29.86 "HgN/A
3:20 AM32 °FPartly cloudy.5 mph93%29.89 "HgN/A
2:50 AM32 °FPassing clouds.5 mph93%29.89 "HgN/A
2:20 AM32 °FOvercast.6 mph100%29.89 "HgN/A
1:50 AM32 °FPartly cloudy.5 mph93%29.92 "HgN/A
1:20 AM32 °FOvercast.8 mph93%29.89 "HgN/A
12:50 AM32 °FOvercast.6 mph93%29.92 "HgN/A
12:20 AM32 °FMostly cloudy.3 mph93%29.92 "HgN/A
11:50 PM
Fri, Feb 27
32 °FOvercast.3 mph93%29.92 "HgN/A
11:20 PM32 °FOvercast.7 mph93%29.92 "HgN/A
10:50 PM32 °FPassing clouds.5 mph93%29.92 "HgN/A
10:20 PM30 °FPassing clouds.3 mph100%29.92 "HgN/A
9:50 PM30 °FPassing clouds.3 mph100%29.92 "HgN/A
9:20 PM30 °FPassing clouds.3 mph93%29.92 "HgN/A
8:50 PM32 °FPassing clouds.3 mph93%29.92 "HgN/A
8:20 PM32 °FPassing clouds.6 mph93%29.92 "HgN/A
7:50 PM32 °FPassing clouds.3 mph93%29.92 "HgN/A
7:20 PM34 °FClear.5 mph87%29.92 "Hg10 mi
6:50 PM37 °FClear.3 mph81%29.89 "Hg10 mi
6:20 PM39 °FPassing clouds.5 mph70%29.89 "HgN/A
5:50 PM39 °FPassing clouds.7 mph70%29.89 "HgN/A
5:20 PM41 °FPassing clouds.10 mph66%29.86 "HgN/A
4:50 PM43 °FScattered clouds.9 mph66%29.86 "HgN/A
4:20 PM45 °FScattered clouds.7 mph57%29.86 "HgN/A
3:50 PM45 °FScattered clouds.7 mph57%29.86 "HgN/A
3:20 PM46 °FScattered clouds.6 mph57%29.86 "HgN/A
Weather by CustomWeather, © 2015

See weather overviewHow to use our weather pages